Wind_Speed
11 9 10 10 11 11 12 13 15 10 12 13 13 14 13 14 14 15 16 18 20 20 21 21 21 20 20 20 20 18 21 23 23 19 21 23 22 21 20 19 23 20 19
9 10 11 11 10 10 12 13 13 13 9 10 11 12 16 18 18 19 20 23 26 27 27 25 26 25 26 26 25 24 25 26 26 24 22 22 25 23 23 23 22 22 24
10 9 10 10 11 12 12 10 10 12 16 15 15 16 17 18 20 21 21 26 27 29 31 32 33 30 28 27 28 27 27 27 27 26 22 22 27 28 26 27 27 26 24
12 11 11 12 12 11 11 12 13 15 18 20 20 22 23 24 25 26 22 21 32 32 44 38 34 33 32 30 29 28 27 36 30 29 28 27 29 28 29 29 25 21 28
15 16 16 15 17 18 18 17 19 19 20 23 24 25 28 28 27 16 17 25 26 32 25 24 31 29 22 23 29 34 29 36 36 39 31 29 30 31 27 29 28 27 21
18 19 15 17 19 17 17 20 22 19 21 22 23 27 33 30 37 34 29 24 26 27 28 24 23 25 25 21 27 31 31 36 35 32 31 29 33 24 35 32 25 22 23
11 14 15 14 14 16 17 18 20 23 24 24 27 29 31 36 37 36 32 29 29 29 30 29 27 26 28 27 28 28 28 32 34 34 35 37 32 34 36 34 20 17 18
14 15 16 17 17 18 18 19 21 22 24 26 29 31 33 35 35 35 34 31 30 31 31 32 31 30 31 33 31 32 33 31 30 32 30 30 24 26 23 16 19 21 24
12 13 13 14 14 14 15 16 17 19 23 26 29 30 31 31 30 31 32 32 32 32 32 34 33 31 33 34 35 33 34 35 31 32 29 25 25 21 23 16 20 28 21
9 8 8 8 8 10 12 14 16 18 20 22 24 26 28 28 27 25 25 24 25 27 31 29 29 32 35 33 34 33 33 35 35 32 28 25 24 24 24 24 26 28 28
7 7 8 8 8 8 9 12 17 18 18 21 23 23 24 26 25 23 23 24 27 26 25 25 26 28 31 31 32 32 32 31 32 30 30 26 23 21 22 24 28 30 29
8 8 9 9 9 10 12 13 14 14 17 18 21 23 25 26 27 27 27 28 26 25 25 23 22 25 28 30 30 28 28 26 26 28 26 23 22 21 17 25 29 28 24
7 8 8 10 10 11 11 12 15 16 18 17 19 19 25 20 18 15 15 14 13 14 16 20 21 22 22 24 22 21 20 18 18 20 21 21 22 21 18 17 23 21 22
8 8 9 10 11 11 11 13 14 15 14 16 19 23 27 22 16 14 14 15 17 17 15 14 16 19 21 20 20 17 15 16 17 18 20 20 22 22 22 25 32 23 17
8 9 9 10 11 12 13 14 15 16 16 17 19 21 21 21 24 23 19 18 20 26 18 14 15 17 18 17 20 21 20 19 19 19 19 20 18 20 21 22 20 12 14
8 8 9 13 13 13 15 16 16 17 18 19 18 19 20 21 22 20 20 21 23 26 24 24 21 14 14 11 14 14 14 11 10 9 10 12 15 17 20 18 18 11 14
7 8 9 9 10 13 13 14 15 17 17 18 18 18 20 20 20 20 20 21 20 19 19 18 17 14 12 11 13 14 16 16 14 14 15 17 17 17 20 19 13 9 6
7 8 9 11 13 14 15 16 16 17 18 17 17 18 19 19 19 19 20 22 22 20 19 19 18 18 18 17 15 14 14 15 16 16 15 15 14 14 15 14 15 13 11
8 9 10 12 14 15 16 17 16 17 18 17 17 17 17 18 18 19 20 20 19 19 19 19 19 18 18 18 16 16 17 16 15 16 16 16 15 14 13 13 12 11 10
9 10 11 13 14 15 16 18 17 16 16 17 19 18 18 18 17 16 16 16 17 17 17 19 20 20 20 20 19 18 17 17 17 18 19 18 17 14 11 11 12 10 11
12 12 13 13 13 13 14 15 17 17 18 19 19 20 20 21 21 17 17 17 19 19 19 20 21 22 22 22 22 21 20 19 18 18 18 17 17 15 13 13 12 11 12
14 15 14 14 14 14 14 15 16 18 18 19 20 19 21 22 22 18 22 19 25 14 20 20 24 27 24 25 24 23 23 21 19 16 14 14 14 14 12 10 10 11 11
15 15 15 16 15 14 14 14 15 17 19 20 21 22 22 24 23 22 10 25 18 22 16 20 23 25 24 26 26 25 22 20 17 14 11 12 13 13 11 11 10 11 12
14 14 14 16 15 15 14 15 15 16 19 21 22 23 21 21 21 20 18 19 20 18 19 19 22 25 25 28 28 26 21 20 15 10 9 11 11 12 11 11 12 12 12
15 16 16 15 16 15 15 15 16 16 17 18 20 20 20 21 21 20 20 21 20 17 19 19 21 23 24 27 28 24 22 19 15 10 8 9 11 13 12 12 15 14 10
19 19 19 18 17 17 16 16 16 16 17 17 20 20 20 19 18 18 18 17 19 21 20 18 20 22 23 25 26 24 20 18 14 12 11 11 12 13 13 13 13 9 6
Wind_Direction
269 268 270 269 271 279 284 291 297 304 300 301 301 295 305 296 306 299 291 277 268 263 259 261 265 267 270 274 280 282 287 298 301 308 310 311 314 315 318 319 326 313 303
256 261 267 270 276 281 289 295 302 312 313 312 312 314 316 329 323 316 304 300 296 287 277 265 263 269 271 274 276 278 282 284 289 293 294 296 297 301 303 300 301 306 300
263 278 279 278 276 275 275 281 299 304 307 307 310 310 312 305 299 300 311 306 293 284 275 272 268 265 267 271 274 277 281 278 279 282 285 283 287 291 295 294 292 294 290
252 255 266 270 261 258 259 277 291 298 297 300 306 302 300 300 295 290 304 303 308 298 283 269 266 267 265 267 274 276 278 279 274 279 271 270 276 282 286 290 288 284 293
266 262 262 266 268 268 266 267 273 281 288 296 298 296 297 290 277 245 317 299 306 299 315 314 288 280 291 275 277 284 285 285 300 255 262 265 270 278 288 282 282 291 280
280 277 272 268 273 272 277 281 285 290 287 287 289 292 282 286 312 304 307 299 296 296 297 293 293 288 288 295 293 269 278 285 284 286 292 258 271 261 269 261 270 287 273
268 278 289 286 285 286 288 284 288 292 293 291 290 289 290 293 298 297 298 297 292 287 285 287 285 278 278 281 281 280 286 290 288 289 292 299 294 258 257 266 271 296 282
276 276 278 281 285 286 288 290 291 293 293 295 295 295 297 297 295 296 295 291 288 286 285 284 286 286 285 281 279 280 280 280 285 286 289 291 296 276 265 269 271 291 283
279 279 279 282 286 289 292 295 296 297 302 303 303 302 302 296 293 290 287 284 283 283 286 287 286 285 279 279 278 279 279 282 278 278 283 274 289 276 272 269 284 285 282
297 307 310 307 307 307 308 313 315 315 319 316 313 311 308 306 299 299 299 295 290 286 284 287 290 284 277 277 277 279 277 274 276 276 277 283 280 281 282 280 278 282 282
348 336 331 333 331 332 332 332 332 329 329 331 334 333 319 312 310 303 304 306 305 300 295 291 286 284 282 282 278 273 273 272 270 273 276 280 277 278 283 285 279 281 284
356 354 355 354 354 347 341 338 334 341 341 341 349 349 338 324 311 305 302 308 307 307 304 303 301 297 295 294 290 281 276 277 273 266 270 277 275 276 272 247 281 287 271
14 4 13 1 5 357 355 2 356 354 352 351 353 1 354 344 328 316 322 325 327 319 311 306 306 307 308 307 303 287 282 279 276 274 270 268 273 276 273 250 277 274 266
15 20 3 359 355 355 351 347 352 350 353 358 3 7 12 12 12 1 353 354 -0 341 319 315 315 316 316 312 307 302 292 282 278 277 275 279 285 284 275 269 269 275 242
10 3 358 359 354 355 351 354 358 359 358 3 6 13 16 24 27 34 40 35 19 27 16 316 309 323 317 321 311 303 297 291 292 292 291 293 287 286 276 275 274 272 248
9 9 3 2 0 355 351 353 359 357 359 2 7 11 14 20 25 23 28 24 23 26 16 22 23 7 357 344 341 331 327 334 332 336 321 313 299 291 294 297 290 270 238
24 19 15 8 2 6 2 2 359 359 359 355 358 7 10 11 16 15 16 17 19 19 19 16 20 13 9 7 3 354 346 338 332 321 310 303 298 296 300 308 325 337 300
18 14 3 2 4 4 3 3 1 359 356 351 356 4 7 6 5 5 6 7 11 14 13 14 12 8 1 355 351 344 340 337 334 330 327 325 319 301 293 291 295 301 301
350 353 353 353 358 359 -0 -0 358 357 349 350 353 355 356 356 -0 2 4 4 3 359 359 4 6 5 -0 353 345 336 333 331 330 331 333 330 328 322 305 295 292 293 297
335 340 341 342 350 352 354 353 353 348 350 350 347 352 352 348 351 353 352 356 351 352 351 352 354 353 351 347 342 333 324 318 317 320 325 329 329 325 313 306 304 291 298
317 327 333 338 340 341 342 346 348 352 348 346 349 350 346 347 347 348 346 347 348 345 347 348 347 344 343 341 334 331 326 317 307 308 315 320 324 321 317 308 301 298 294
299 310 319 326 331 335 340 343 346 345 345 345 346 350 344 348 348 331 330 342 349 328 346 347 350 341 340 340 338 333 327 321 312 302 308 314 318 322 322 322 302 285 283
293 300 310 315 323 325 330 339 340 348 345 343 344 347 350 349 353 356 345 346 346 334 338 342 348 342 341 347 344 338 334 327 318 305 309 318 326 328 328 332 326 310 295
297 300 305 309 316 318 324 334 342 346 346 346 345 344 348 347 346 348 346 355 359 354 346 343 344 346 346 354 351 345 347 347 345 327 318 327 330 331 326 329 324 313 303
303 303 305 307 308 312 316 325 333 337 342 342 340 342 341 341 345 342 345 347 344 338 340 343 346 352 349 357 359 352 359 2 2 1 347 334 330 333 334 331 327 324 316
297 299 301 302 306 308 312 317 323 326 326 334 339 340 337 334 340 339 342 339 339 341 346 347 346 355 355 1 5 2 2 10 8 8 353 343 338 334 335 337 340 340 331
Height
5941 5942 5942 5943 5943 5940 5938 5936 5934 5938 5938 5937 5936 5936 5935 5936 5931 5931 5933 5931 5930 5928 5927 5926 5924 5922 5922 5921 5920 5920 5920 5918 5916 5917 5914 5912 5912 5910 5907 5905 5904 5904 5902
5938 5939 5940 5940 5940 5938 5936 5935 5932 5931 5933 5931 5931 5931 5930 5927 5930 5930 5928 5928 5927 5927 5925 5920 5916 5915 5915 5913 5913 5913 5914 5912 5909 5908 5909 5907 5904 5904 5902 5898 5896 5894 5894
5936 5936 5936 5936 5936 5935 5933 5931 5931 5929 5926 5927 5928 5928 5926 5926 5925 5923 5923 5923 5922 5919 5916 5915 5912 5908 5906 5906 5905 5905 5904 5903 5901 5898 5899 5899 5894 5892 5891 5889 5888 5885 5883
5931 5931 5932 5932 5932 5931 5931 5929 5926 5926 5925 5923 5922 5920 5919 5918 5915 5913 5913 5913 5911 5909 5905 5905 5905 5904 5903 5900 5897 5894 5891 5892 5893 5893 5889 5886 5885 5883 5882 5881 5881 5881 5876
5926 5926 5926 5926 5926 5926 5925 5925 5924 5922 5921 5920 5917 5915 5913 5909 5900 5890 5904 5905 5901 5898 5894 5899 5895 5896 5896 5893 5887 5882 5881 5886 5883 5874 5866 5876 5876 5875 5873 5873 5872 5871 5869
5919 5919 5922 5921 5920 5921 5920 5918 5917 5916 5915 5912 5910 5909 5896 5874 5887 5893 5894 5895 5896 5891 5887 5889 5889 5884 5886 5886 5881 5879 5875 5874 5869 5868 5867 5856 5866 5860 5861 5863 5860 5861 5859
5918 5916 5916 5916 5916 5914 5914 5912 5911 5908 5907 5905 5902 5899 5897 5892 5889 5888 5888 5887 5887 5884 5882 5880 5881 5879 5878 5875 5871 5870 5869 5866 5866 5864 5861 5859 5854 5852 5845 5852 5851 5852 5851
5914 5913 5912 5911 5911 5909 5907 5906 5904 5902 5900 5897 5894 5891 5889 5886 5884 5881 5879 5879 5877 5874 5872 5870 5867 5866 5865 5864 5862 5863 5861 5858 5857 5853 5854 5852 5847 5847 5845 5844 5844 5844 5843
5909 5908 5907 5906 5906 5904 5903 5901 5899 5897 5894 5891 5888 5884 5881 5877 5875 5873 5870 5867 5866 5864 5860 5858 5859 5858 5857 5854 5853 5853 5852 5849 5850 5848 5847 5844 5843 5840 5839 5837 5838 5837 5836
5904 5903 5902 5901 5900 5899 5898 5896 5894 5891 5889 5885 5882 5877 5871 5866 5864 5861 5860 5859 5858 5856 5853 5852 5850 5847 5846 5846 5844 5844 5842 5841 5841 5840 5838 5836 5834 5833 5833 5832 5831 5829 5829
5901 5900 5900 5899 5898 5897 5895 5893 5890 5887 5884 5881 5877 5871 5866 5860 5856 5853 5850 5849 5848 5846 5844 5843 5842 5839 5837 5836 5836 5835 5834 5832 5831 5830 5830 5829 5828 5827 5826 5825 5823 5821 5821
5899 5898 5897 5897 5896 5894 5893 5891 5888 5885 5882 5878 5874 5868 5861 5855 5850 5847 5846 5843 5840 5838 5836 5835 5834 5832 5830 5828 5826 5825 5824 5823 5823 5823 5822 5821 5821 5820 5820 5817 5815 5814 5814
5899 5897 5897 5896 5895 5893 5891 5889 5886 5883 5879 5876 5872 5867 5860 5853 5847 5844 5842 5839 5835 5833 5831 5829 5827 5825 5823 5821 5819 5817 5817 5816 5815 5815 5815 5814 5813 5814 5813 5808 5811 5810 5809
5898 5898 5897 5895 5894 5892 5890 5887 5884 5882 5878 5875 5870 5864 5858 5850 5846 5843 5840 5837 5833 5830 5828 5825 5823 5821 5819 5816 5814 5812 5810 5810 5809 5808 5807 5806 5806 5806 5806 5806 5806 5804 5803
5898 5897 5896 5894 5893 5890 5888 5885 5883 5880 5877 5874 5870 5865 5859 5853 5848 5843 5839 5836 5832 5828 5824 5821 5818 5817 5815 5812 5809 5808 5806 5805 5803 5802 5801 5800 5799 5800 5798 5798 5798 5797 5797
5897 5896 5895 5892 5891 5889 5885 5883 5882 5879 5876 5873 5869 5864 5859 5854 5849 5845 5840 5836 5831 5826 5824 5820 5817 5815 5812 5809 5806 5804 5802 5801 5798 5797 5796 5796 5795 5795 5793 5793 5792 5791 5792
5897 5895 5894 5893 5891 5888 5885 5883 5880 5878 5874 5872 5868 5864 5860 5856 5852 5848 5843 5839 5834 5831 5827 5823 5820 5817 5814 5811 5808 5805 5803 5800 5799 5797 5796 5794 5793 5791 5790 5789 5786 5786 5787
5896 5895 5893 5891 5889 5886 5884 5881 5879 5876 5873 5870 5867 5864 5860 5856 5851 5847 5844 5841 5838 5834 5830 5825 5821 5816 5812 5809 5806 5804 5802 5800 5797 5795 5792 5790 5788 5787 5786 5785 5784 5785 5784
5893 5892 5891 5890 5887 5884 5882 5880 5877 5874 5872 5869 5866 5862 5859 5855 5851 5848 5845 5842 5838 5834 5830 5825 5821 5817 5812 5808 5804 5801 5799 5797 5795 5792 5790 5788 5785 5783 5782 5781 5781 5781 5781
5891 5890 5890 5887 5885 5883 5880 5878 5876 5873 5870 5867 5863 5861 5857 5853 5850 5847 5843 5839 5836 5833 5828 5824 5820 5816 5812 5808 5803 5799 5796 5793 5791 5789 5786 5784 5782 5780 5779 5778 5777 5777 5777
5888 5888 5887 5886 5884 5882 5880 5877 5874 5871 5867 5864 5861 5858 5854 5851 5848 5845 5841 5840 5836 5832 5829 5823 5818 5815 5811 5806 5801 5796 5793 5789 5787 5784 5783 5781 5779 5778 5776 5775 5774 5774 5774
5886 5884 5884 5883 5881 5879 5877 5875 5872 5869 5866 5862 5859 5857 5852 5849 5845 5840 5838 5836 5834 5831 5826 5823 5815 5813 5810 5804 5799 5794 5789 5785 5782 5781 5780 5779 5777 5775 5774 5773 5772 5771 5771
5882 5881 5880 5879 5878 5877 5875 5873 5870 5867 5863 5859 5856 5853 5849 5845 5843 5839 5835 5834 5830 5826 5824 5820 5815 5812 5809 5803 5797 5791 5787 5782 5778 5777 5777 5777 5775 5773 5772 5771 5770 5769 5768
5878 5877 5877 5876 5874 5873 5872 5870 5867 5864 5860 5856 5853 5850 5847 5843 5842 5837 5834 5830 5827 5824 5822 5818 5814 5809 5806 5801 5795 5789 5784 5780 5776 5775 5775 5775 5774 5772 5770 5769 5767 5766 5765
5875 5874 5873 5873 5871 5870 5868 5866 5863 5861 5858 5854 5850 5847 5844 5841 5838 5835 5832 5829 5825 5822 5820 5817 5814 5811 5806 5800 5794 5789 5783 5779 5776 5775 5774 5774 5772 5770 5769 5767 5765 5763 5761
5870 5870 5869 5868 5867 5865 5864 5861 5859 5857 5854 5851 5849 5845 5842 5839 5837 5834 5830 5828 5825 5822 5819 5815 5812 5808 5804 5798 5794 5789 5785 5781 5778 5776 5775 5774 5773 5771 5769 5766 5763 5761 5760